[[{"header":{"parameterUnit":"m.s-1","parameterCategory":1,"la1":30.2991,"la2":30.254,"lo1":-89.0895,"lo2":-89.0444,"dy":0.0017,"dx":0.0017,"nx":28,"ny":28,"refTime":"2024-08-26T21:00:00:Z","depth":0,"parameterNumber":2,"parameterNumberName":"U-component_of_WINDS"},"data":[0,0,0,0,0,0,0,0,0,0,0,0,0,0,0,0,0,0,0,0,0,0,0,0,0,0,0,0,0,0,0,0,0,0,0,0,0,0,0,0,0,0,0,0,0,0,0,0,0,0,0,0,0,0,0,0,0,0,-1.7302,-1.7302,0,-1.7305,-1.7305,-1.7305,-1.7272,-1.7272,-1.7271,-1.727,-1.7272,-1.7273,-1.7274,0,0,0,0,0,0,0,0,0,0,0,0,0,-1.7268,-1.7269,-1.7302,-1.7302,-1.7302,-1.7305,-1.7305,-1.7305,-1.7273,-1.7271,-1.727,-1.7269,-1.7272,-1.7273,-1.7274,0,0,0,0,0,0,0,0,0,0,0,0,0,-1.7278,-1.7269,-1.7302,-1.7286,-1.7285,-1.7305,-1.7305,-1.7305,-1.7273,-1.7271,-1.727,-1.7269,-1.7272,-1.7273,-1.7274,-1.7309,0,0,-1.7279,-1.7279,0,0,0,0,0,0,0,0,-1.7278,-1.7279,-1.7288,-1.7287,-1.7286,-1.7287,-1.7294,-1.7306,-1.7273,-1.7277,-1.727,-1.7268,-1.7278,-1.7279,-1.7282,-1.7309,-1.7309,-1.7279,-1.7279,-1.728,-1.728,0,0,0,0,0,0,0,-1.7277,-1.7279,-1.7303,-1.7289,-1.7287,-1.7279,-1.7279,-1.7296,-1.7285,-1.7277,-1.7275,-1.7275,-1.7277,-1.7281,-1.7282,-1.7309,-1.7279,-1.728,-1.7281,-1.7281,-1.7364,-1.7366,0,0,0,0,0,0,-1.7279,-1.7279,-1.7303,-1.7303,-1.7278,-1.7281,-1.7281,-1.7288,-1.7285,-1.7283,-1.7276,-1.7274,-1.728,-1.7281,-1.7282,-1.7322,-1.728,-1.7281,-1.7282,-1.7363,-1.7365,-1.7366,0,0,0,0,0,0,-1.7278,-1.7281,-1.7303,-1.729,-1.7292,-1.7283,-1.7291,-1.7289,-1.7292,-1.7285,-1.7282,-1.7282,-1.7279,-1.728,-1.7303,-1.7322,-1.7282,-1.7283,-1.7361,-1.7363,-1.7365,-1.7402,0,0,0,0,0,0,-1.7277,-1.7281,-1.7294,-1.7291,-1.7293,-1.7323,-1.7292,-1.729,-1.7295,-1.7291,-1.729,-1.7288,-1.7278,-1.7301,-1.7304,-1.7323,-1.7284,-1.7359,-1.7362,-1.7365,-1.7399,-1.7405,-1.741,0,0,0,0,0,-1.7276,-1.7304,-1.7295,-1.7298,-1.7309,-1.7324,-1.7326,-1.7313,-1.7296,-1.7309,-1.7304,-1.7288,-1.7319,-1.7303,-1.7307,-1.7326,-1.7358,-1.7361,-1.7364,-1.7397,-1.7404,-1.741,0,0,0,0,0,0,-1.731,-1.7304,-1.7293,-1.7321,-1.7324,-1.7319,-1.7335,-1.7321,-1.7328,-1.7325,-1.7309,-1.7309,-1.7334,-1.7332,-1.7315,-1.7359,-1.7336,-1.734,-1.7359,-1.7366,-1.7372,-1.7371,-1.7285,0,0,0,0,0,-1.7321,-1.7334,-1.7327,-1.7353,-1.7355,-1.7345,-1.7351,-1.7341,-1.7343,-1.7343,-1.734,-1.7342,-1.7352,-1.7359,-1.7368,-1.7399,-1.7398,-1.7414,-1.742,-1.7425,-1.7428,-1.7443,-1.745,-1.7377,-1.7376,-1.7376,0,0,-1.7343,-1.7342,-1.735,-1.736,-1.736,-1.7373,-1.7346,-1.7361,-1.737,-1.7346,-1.7366,-1.7364,-1.7365,-1.7392,-1.7403,-1.7391,-1.7448,-1.7429,-1.7432,-1.7433,-1.7447,-1.7454,-1.7461,-1.7379,-1.7378,-1.7378,0,0,-1.7391,-1.7391,-1.7412,-1.7413,-1.7414,-1.7408,-1.7413,-1.741,-1.7407,-1.7428,-1.7409,-1.7421,-1.7439,-1.744,-1.7443,-1.7492,-1.7477,-1.7495,-1.7524,-1.754,-1.7545,-1.755,-1.7567,-1.7573,-1.7499,-1.7499,-1.7499,0,-1.7418,-1.7438,-1.7424,-1.7441,-1.7445,-1.7423,-1.7444,-1.7446,-1.745,-1.7454,-1.744,-1.7462,-1.7462,-1.7488,-1.75,-1.7504,-1.7508,-1.7495,-1.7546,-1.7551,-1.7555,-1.757,-1.7577,-1.7501,-1.7501,-1.75,-1.75,0,-1.7471,-1.7485,-1.7502,-1.7506,-1.7512,-1.7531,-1.752,-1.7528,-1.7518,-1.7513,-1.7534,-1.7532,-1.754,-1.7546,-1.7537,-1.7571,-1.7563,-1.7548,-1.7524,-1.7564,-1.7578,-1.7584,-1.7504,-1.7503,-1.7503,-1.7502,0,0,-1.7539,-1.7536,-1.7543,-1.7544,-1.7544,-1.7554,-1.7572,-1.758,-1.7586,-1.759,-1.7604,-1.762,-1.7606,-1.761,-1.76,-1.7614,-1.7651,-1.7597,-1.7596,-1.7606,-1.7688,-1.7699,-1.7706,-1.7642,-1.7643,-1.7643,-1.7687,0,-1.7585,-1.7614,-1.7603,-1.7633,-1.7645,-1.7625,-1.764,-1.7642,-1.7637,-1.7647,-1.7642,-1.7653,-1.7634,-1.7636,-1.7649,-1.7644,-1.7667,-1.7641,-1.7654,-1.7654,-1.7653,-1.7713,-1.7725,-1.7766,-1.7693,-1.7694,-1.7695,0,-1.7641,-1.7647,-1.7679,-1.7676,-1.7681,-1.7695,-1.7701,-1.771,-1.7712,-1.7707,-1.7712,-1.7699,-1.7716,-1.7693,-1.7715,-1.7698,-1.7702,-1.7701,-1.7702,-1.7702,-1.7676,-1.7714,-1.7779,-1.7785,-1.7703,-1.7703,-1.7702,0,-1.7687,-1.7703,-1.7723,-1.7726,-1.7723,-1.7733,-1.7733,-1.7733,-1.7738,-1.7744,-1.7747,-1.7755,-1.7758,-1.7764,-1.7754,-1.7738,-1.7778,-1.7754,-1.7774,-1.7775,-1.7783,-1.7782,-1.7849,-1.7788,-1.7788,-1.7788,-1.7788,0,-1.7738,-1.7758,-1.7744,-1.7756,-1.7778,-1.7765,-1.7786,-1.7784,-1.7784,-1.7795,-1.7779,-1.779,-1.7776,-1.7786,-1.7778,-1.7798,-1.78,-1.7797,-1.7794,-1.7798,-1.7798,-1.78,-1.7796,-1.7789,-1.7789,-1.7789,-1.7788,0,-1.7792,-1.7783,-1.7805,-1.7801,-1.78,-1.7816,-1.7813,-1.7824,-1.7819,-1.7833,-1.7836,-1.7828,-1.7838,-1.7829,-1.784,-1.7834,-1.786,-1.7854,-1.7859,-1.7857,-1.7878,-1.7875,-1.7947,-1.7955,-1.789,-1.7891,-1.7891,0,-1.7825,-1.784,-1.7837,-1.7844,-1.7844,-1.7855,-1.786,-1.7848,-1.7854,-1.7857,-1.7868,-1.7877,-1.7884,-1.7902,-1.7897,-1.7904,-1.7898,-1.7922,-1.7899,-1.7902,-1.7897,-1.7896,-1.7897,-1.7927,-1.7928,-1.7928,-1.7929,0,-1.7884,-1.7879,-1.7887,-1.7894,-1.79,-1.7905,-1.7909,-1.7915,-1.7902,-1.791,-1.7921,-1.7926,-1.7937,-1.7946,-1.7952,-1.7951,-1.7938,-1.7936,-1.7941,-1.7944,-1.7946,-1.7945,-1.7871,-1.7934,-1.7934,-1.7933,-1.7933,-1.7933,-1.7927,-1.7939,-1.7939,-1.7949,-1.795,-1.7954,-1.7964,-1.796,-1.7968,-1.7976,-1.7968,-1.7981,-1.7982,-1.7988,-1.799,-1.7999,-1.7989,-1.7996,-1.7998,-1.8,-1.8002,-1.7946,-1.8001,-1.8,-1.8,-1.8,-1.8,0,-1.7984,-1.7983,-1.7992,-1.7997,-1.8005,-1.7992,-1.7995,-1.8002,-1.8014,-1.8015,-1.8022,-1.8034,-1.8043,-1.8039,-1.8046,-1.8055,-1.8049,-1.8057,-1.8056,-1.8056,-1.8012,-1.8006,-1.8062,-1.8062,-1.8062,-1.8062,-1.8062,-1.8062,-1.8015,-1.8034,-1.8029,-1.8048,-1.8047,-1.8059,-1.8062,-1.8065,-1.8066,-1.8081,-1.8088,-1.8085,-1.8084,-1.8092,-1.8099,-1.8097,-1.8101,-1.8111,-1.8107,-1.8065,-1.8059,-1.8053,-1.8048,-1.8112,-1.8112,-1.8151,-1.8151,-1.8151]},{"header":{"parameterUnit":"m.s-1","parameterCategory":1,"la1":30.2991,"la2":30.254,"lo1":-89.0895,"lo2":-89.0444,"dy":0.0017,"dx":0.0017,"nx":28,"ny":28,"refTime":"2024-08-26T21:00:00:Z","depth":0,"parameterNumber":3,"parameterNumberName":"V-component_of_WINDS"},"data":[0,0,0,0,0,0,0,0,0,0,0,0,0,0,0,0,0,0,0,0,0,0,0,0,0,0,0,0,0,0,0,0,0,0,0,0,0,0,0,0,0,0,0,0,0,0,0,0,0,0,0,0,0,0,0,0,0,0,1.7848,1.7848,0,1.7793,1.7793,1.7792,1.7744,1.7744,1.7743,1.7743,1.7682,1.7681,1.768,0,0,0,0,0,0,0,0,0,0,0,0,0,1.7908,1.7907,1.7848,1.7848,1.7847,1.7793,1.7793,1.7792,1.7744,1.7744,1.7743,1.7742,1.7683,1.7681,1.768,0,0,0,0,0,0,0,0,0,0,0,0,0,1.7871,1.7907,1.7848,1.7817,1.7813,1.7794,1.7793,1.7792,1.7744,1.7744,1.7743,1.7742,1.7683,1.7681,1.768,1.7686,0,0,1.7675,1.7674,0,0,0,0,0,0,0,0,1.7873,1.7868,1.7822,1.7819,1.7815,1.7775,1.7792,1.7756,1.7745,1.7771,1.7743,1.7742,1.7713,1.7709,1.7701,1.7683,1.768,1.7675,1.7674,1.7673,1.7672,0,0,0,0,0,0,0,1.7875,1.787,1.7826,1.7822,1.7817,1.7804,1.7798,1.7785,1.7747,1.7768,1.7765,1.7759,1.7711,1.7702,1.7699,1.7679,1.7675,1.7673,1.7672,1.7671,1.7662,1.7663,0,0,0,0,0,0,1.7883,1.7873,1.7828,1.7825,1.7843,1.7804,1.7797,1.7789,1.7747,1.774,1.776,1.7757,1.7706,1.7701,1.7697,1.7699,1.7673,1.7671,1.767,1.7661,1.7662,1.7663,0,0,0,0,0,0,1.7885,1.788,1.783,1.7848,1.7841,1.7804,1.7795,1.7788,1.7779,1.7741,1.7733,1.7758,1.7705,1.7699,1.7689,1.7697,1.7671,1.7669,1.7661,1.7662,1.7663,1.7706,0,0,0,0,0,0,1.7887,1.7881,1.7883,1.7848,1.784,1.7825,1.7795,1.7787,1.7777,1.7772,1.7737,1.773,1.7704,1.7691,1.7687,1.7694,1.7668,1.766,1.7661,1.7662,1.7704,1.7709,1.7713,0,0,0,0,0,1.7889,1.7897,1.7884,1.7879,1.7843,1.7825,1.782,1.7791,1.7778,1.7779,1.7755,1.7731,1.7697,1.7691,1.7685,1.7692,1.7659,1.7661,1.7662,1.7702,1.7708,1.7713,0,0,0,0,0,0,1.7932,1.7892,1.7877,1.7874,1.7854,1.7817,1.7818,1.7798,1.778,1.7777,1.774,1.7733,1.7726,1.7708,1.7702,1.7695,1.7675,1.7675,1.7707,1.7712,1.7716,1.772,1.7666,0,0,0,0,0,1.7942,1.7933,1.7897,1.7898,1.7889,1.7856,1.7847,1.7826,1.7803,1.7794,1.7769,1.7746,1.773,1.772,1.7704,1.7702,1.7692,1.7703,1.7708,1.7712,1.7712,1.7708,1.7712,1.7669,1.7669,1.7669,0,0,1.7961,1.7938,1.7933,1.7906,1.7888,1.7878,1.7849,1.7839,1.7831,1.7792,1.7781,1.7762,1.7734,1.7728,1.7724,1.7713,1.7722,1.7714,1.7717,1.7715,1.7711,1.7715,1.7718,1.767,1.767,1.7669,0,0,1.799,1.7972,1.797,1.7953,1.7926,1.7904,1.7904,1.7871,1.7857,1.7846,1.7817,1.7806,1.778,1.7761,1.7748,1.777,1.7747,1.7766,1.7788,1.7785,1.7789,1.7791,1.7798,1.7801,1.7767,1.7767,1.7767,0,1.8016,1.8,1.7971,1.7964,1.7952,1.7919,1.7915,1.79,1.7869,1.7861,1.7849,1.7815,1.7794,1.7783,1.7788,1.778,1.7777,1.7769,1.7791,1.7793,1.7796,1.7801,1.7804,1.7769,1.7769,1.7769,1.7769,0,1.8033,1.8023,1.8025,1.7997,1.7985,1.798,1.7949,1.7941,1.7922,1.7901,1.7889,1.7863,1.784,1.7836,1.7817,1.7821,1.7815,1.7798,1.7777,1.7803,1.7807,1.7809,1.7773,1.7772,1.7771,1.777,0,0,1.8086,1.8043,1.8044,1.8031,1.8,1.799,1.7983,1.7962,1.7955,1.7935,1.7927,1.7906,1.789,1.7876,1.7854,1.7851,1.7869,1.7834,1.7833,1.784,1.7871,1.7883,1.7886,1.7855,1.7855,1.7855,1.7873,0,1.8108,1.8095,1.8069,1.8063,1.8052,1.8021,1.8015,1.7994,1.7975,1.7962,1.7939,1.7925,1.7905,1.7896,1.7893,1.7868,1.7875,1.7866,1.7845,1.7845,1.7851,1.7889,1.7901,1.7919,1.7875,1.7875,1.7875,0,1.8132,1.8115,1.8109,1.8078,1.8073,1.8068,1.8046,1.8035,1.8011,1.7996,1.7981,1.7957,1.7947,1.7929,1.7913,1.7908,1.7898,1.7885,1.7884,1.788,1.786,1.7883,1.7924,1.7926,1.7878,1.7878,1.7878,0,1.8169,1.8145,1.8138,1.8128,1.8092,1.8089,1.8074,1.8049,1.8038,1.8019,1.8011,1.7991,1.7979,1.7963,1.7934,1.7924,1.7921,1.7901,1.7907,1.7908,1.7906,1.7906,1.7944,1.7903,1.7903,1.7903,1.7903,0,1.8196,1.8192,1.8154,1.8149,1.8144,1.8114,1.811,1.8092,1.807,1.806,1.8032,1.8023,1.7987,1.7973,1.7951,1.794,1.7935,1.7922,1.7916,1.7923,1.7925,1.7915,1.7912,1.7904,1.7903,1.7903,1.7903,0,1.8235,1.821,1.8199,1.8167,1.8159,1.8157,1.8128,1.8122,1.8102,1.8089,1.8085,1.8052,1.8034,1.8005,1.7978,1.7963,1.7956,1.7947,1.7965,1.7961,1.7968,1.7967,1.7999,1.8001,1.7961,1.7961,1.7961,0,1.8253,1.825,1.8218,1.821,1.8196,1.8184,1.8173,1.8143,1.8133,1.8105,1.8102,1.8083,1.8065,1.8039,1.8012,1.7991,1.798,1.7992,1.7976,1.7984,1.7978,1.7978,1.7976,1.7995,1.7996,1.7996,1.7997,0,1.8286,1.8274,1.826,1.8242,1.823,1.8213,1.8195,1.819,1.8156,1.8146,1.8128,1.8115,1.8089,1.807,1.8046,1.8028,1.8006,1.8003,1.8003,1.8009,1.8019,1.8013,1.7973,1.8001,1.8001,1.8001,1.8,1.8,1.8314,1.831,1.8287,1.8272,1.8256,1.824,1.8232,1.8211,1.8197,1.8174,1.8157,1.8141,1.8116,1.8082,1.8066,1.8051,1.8041,1.8042,1.8042,1.8042,1.8044,1.8024,1.8047,1.8047,1.8047,1.8047,1.8046,0,1.8345,1.8329,1.8315,1.8292,1.828,1.8263,1.8242,1.8233,1.8219,1.8199,1.8183,1.8163,1.8144,1.8116,1.8095,1.8089,1.8078,1.8084,1.8083,1.8079,1.8055,1.8056,1.8093,1.8093,1.8093,1.8093,1.8093,1.8093,1.8359,1.835,1.8336,1.8318,1.8302,1.8287,1.8276,1.8261,1.8244,1.8223,1.8208,1.8191,1.8167,1.8144,1.8125,1.8117,1.811,1.8119,1.8107,1.8085,1.8081,1.8077,1.8078,1.8118,1.8118,1.8132,1.8132,1.8132]}]]